Milford, UT

12:56 PM MST on February 14, 2016 (GMT -0700)
Milford Municipal

Weather History for KMLF - June, 2013

Change the Weather History Date:

Sunday, June 9, 2013

  Actual Average Record
Temperature  
Mean Temperature 76 °F -  
Max Temperature 99 °F 81 °F 99 °F (2013)
Min Temperature 52 °F 45 °F 37 °F (2008)
Cooling Degree Days 10    
Growing Degree Days 26 (Base 50)    
Moisture  
Dew Point 19 °F    
Average Humidity 11    
Maximum Humidity 27    
Minimum Humidity 4    
Precipitation  
Precipitation 0.00 in - - ()
Sea Level Pressure  
Sea Level Pressure 29.80 in    
Wind  
Wind Speed 7 mph (SSW)    
Max Wind Speed 20 mph    
Max Gust Speed 30 mph    
Visibility 10 miles    
Events      
Averages and records for this station are not official NWS values.
T = Trace of Precipitation, MM = Missing Value Source: NWS Daily Summary

Daily Weather History Graph

Daily Weather History Graph

Search for Another Location

Airport or City:

Trip Planner

Search our weather history database for the weather conditions in past years. The results will help you decide how hot, cold, wet, or windy it might be!

Date:

Astronomy

Jun. 09, 2013 Rise Set
Actual Time 6:07 AM MDT 8:55 PM MDT
Civil Twilight 5:36 AM MDT 9:26 PM MDT
Nautical Twilight 4:56 AM MDT 10:06 PM MDT
Astronomical Twilight 4:11 AM MDT 10:51 PM MDT
Moon 7:06 AM MDT (6/9) 9:45 PM MDT (6/9)
Length of Visible Light 15h 50m
Length of Day
14h 47m
New Moon, 1% of the Moon is Illuminated
Jun 9
New Moon
Jun 16
First Quarter
Jun 23
Full
Jun 29
Last Quarter
Jul 8
New

Hourly Weather History & Observations

Time (MDT) Temp. Dew Point Humidity Pressure Visibility Wind Dir Wind Speed Gust Speed Precip Events Conditions
12:52 AM 64.0 °F 15.1 °F 15% 29.86 in 10.0 mi SSW 8.1 mph - N/A   Clear
1:52 AM 59.0 °F 17.1 °F 20% 29.87 in 10.0 mi Calm Calm - N/A   Clear
2:52 AM 62.1 °F 15.1 °F 16% 29.85 in 10.0 mi West 10.4 mph - N/A   Clear
3:52 AM 59.0 °F 16.0 °F 19% 29.86 in 10.0 mi Calm Calm - N/A   Clear
4:52 AM 57.0 °F 19.9 °F 24% 29.87 in 10.0 mi South 3.5 mph - N/A   Clear
5:52 AM 54.0 °F 17.1 °F 23% 29.87 in 10.0 mi SSW 4.6 mph - N/A   Clear
6:52 AM 52.0 °F 19.0 °F 27% 29.89 in 10.0 mi SSW 5.8 mph - N/A   Clear
7:52 AM 59.0 °F 24.1 °F 26% 29.89 in 10.0 mi SSW 6.9 mph - N/A   Clear
8:52 AM 69.1 °F 23.0 °F 18% 29.88 in 10.0 mi Calm Calm - N/A   Clear
9:52 AM 77.0 °F 21.0 °F 12% 29.88 in 10.0 mi Calm Calm - N/A   Clear
10:52 AM 82.9 °F 18.0 °F 9% 29.87 in 10.0 mi Calm Calm - N/A   Clear
11:52 AM 89.1 °F 19.0 °F 8% 29.86 in 10.0 mi Variable 3.5 mph - N/A   Clear
12:52 PM 91.0 °F 19.0 °F 7% 29.84 in 10.0 mi SSW 6.9 mph - N/A   Clear
1:52 PM 93.9 °F 19.0 °F 7% 29.83 in 10.0 mi SSE 11.5 mph 17.3 mph N/A   Clear
2:52 PM 95.0 °F 19.9 °F 7% 29.77 in 10.0 mi Variable 5.8 mph - N/A   Clear
3:52 PM 98.1 °F 17.1 °F 5% 29.73 in 10.0 mi SE 12.7 mph 18.4 mph N/A   Clear
4:52 PM 98.1 °F 15.1 °F 5% 29.71 in 10.0 mi South 8.1 mph 21.9 mph N/A   Clear
5:52 PM 98.1 °F 18.0 °F 6% 29.70 in 10.0 mi South 15.0 mph 23.0 mph N/A   Clear
6:52 PM 97.0 °F 18.0 °F 6% 29.69 in 10.0 mi SSW 15.0 mph 29.9 mph N/A   Clear
7:52 PM 93.9 °F 19.0 °F 7% 29.69 in 10.0 mi SW 19.6 mph 28.8 mph N/A   Clear
8:52 PM 89.1 °F 19.9 °F 8% 29.69 in 10.0 mi SSW 18.4 mph - N/A   Clear
9:52 PM 84.0 °F 19.9 °F 9% 29.70 in 10.0 mi SSW 15.0 mph - N/A   Clear
10:52 PM 75.9 °F 26.1 °F 16% 29.73 in 10.0 mi South 9.2 mph - N/A   Clear
11:52 PM 78.1 °F 19.9 °F 11% 29.73 in 10.0 mi South 19.6 mph - N/A   Clear